TimePST,TemperatureF,Dew PointF,Humidity,Sea Level PressureIn,VisibilityMPH,Wind Direction,Wind SpeedMPH,Gust SpeedMPH,PrecipitationIn,Events,Conditions,WindDirDegrees,DateUTC
12:53 AM,62.1,45.0,53,30.02,10.0,Calm,Calm,-,N/A,,Clear,0,2012-11-06 08:53:00
1:53 AM,62.1,37.9,41,30.01,10.0,Calm,Calm,-,N/A,,Clear,0,2012-11-06 09:53:00
2:53 AM,60.1,46.0,60,30.01,10.0,Calm,Calm,-,N/A,,Clear,0,2012-11-06 10:53:00
4:53 AM,57.9,43.0,58,30.03,10.0,Calm,Calm,-,N/A,,Clear,0,2012-11-06 12:53:00
5:53 AM,57.0,44.1,62,30.04,10.0,Calm,Calm,-,N/A,,Clear,0,2012-11-06 13:53:00
6:53 AM,60.1,39.9,47,30.06,10.0,Calm,Calm,-,N/A,,Clear,0,2012-11-06 14:53:00
7:53 AM,66.9,39.9,37,30.08,10.0,Calm,Calm,-,N/A,,Clear,0,2012-11-06 15:53:00
8:53 AM,73.0,42.1,33,30.08,10.0,Calm,Calm,-,N/A,,Clear,0,2012-11-06 16:53:00
9:53 AM,77.0,43.0,30,30.07,10.0,Calm,Calm,-,N/A,,Clear,0,2012-11-06 17:53:00
10:53 AM,82.0,39.0,22,30.05,10.0,Calm,Calm,-,N/A,,Clear,0,2012-11-06 18:53:00
11:53 AM,84.0,39.9,21,30.03,10.0,SW,4.6,-,N/A,,Clear,230,2012-11-06 19:53:00
12:53 PM,82.0,55.0,39,30.00,10.0,SW,8.1,-,N/A,,Clear,220,2012-11-06 20:53:00
1:53 PM,81.0,55.0,41,29.99,10.0,SSW,5.8,-,N/A,,Clear,210,2012-11-06 21:53:00
2:53 PM,79.0,55.9,45,29.99,10.0,SW,5.8,-,N/A,,Clear,220,2012-11-06 22:53:00
3:53 PM,77.0,51.1,40,29.99,10.0,SSW,5.8,-,N/A,,Clear,210,2012-11-06 23:53:00
4:53 PM,73.0,57.0,57,29.99,10.0,SSW,4.6,-,N/A,,Clear,210,2012-11-07 00:53:00
5:53 PM,70.0,59.0,68,30.01,10.0,South,3.5,-,N/A,,Clear,190,2012-11-07 01:53:00
6:53 PM,68.0,60.1,76,30.02,9.0,Calm,Calm,-,N/A,,Clear,0,2012-11-07 02:53:00
7:53 PM,66.9,60.1,79,30.03,7.0,Calm,Calm,-,N/A,,Clear,0,2012-11-07 03:53:00
8:44 PM,66.2,60.8,83,30.05,4.0,South,5.8,-,N/A,,Haze,180,2012-11-07 04:44:00
8:49 PM,64.4,60.8,88,30.05,2.5,SSW,4.6,-,N/A,,Mostly Cloudy,200,2012-11-07 04:49:00
8:53 PM,64.9,61.0,87,30.05,2.5,South,4.6,-,N/A,,Mostly Cloudy,190,2012-11-07 04:53:00
9:53 PM,64.9,61.0,87,30.06,2.5,Calm,Calm,-,N/A,,Overcast,0,2012-11-07 05:53:00
10:04 PM,64.4,60.8,88,30.06,3.0,SE,3.5,-,N/A,,Haze,130,2012-11-07 06:04:00
10:15 PM,64.4,60.8,88,30.06,2.5,Calm,Calm,-,N/A,,Haze,0,2012-11-07 06:15:00
10:26 PM,64.4,60.8,88,30.06,3.0,Calm,Calm,-,N/A,,Haze,0,2012-11-07 06:26:00
10:53 PM,64.9,60.1,84,30.06,4.0,Calm,Calm,-,N/A,,Haze,0,2012-11-07 06:53:00
11:49 PM,64.4,59.0,83,30.06,4.0,Calm,Calm,-,N/A,,Haze,0,2012-11-07 07:49:00
11:53 PM,64.9,59.0,81,30.06,4.0,Calm,Calm,-,N/A,,Haze,0,2012-11-07 07:53:00